#timestamp,LO_Frequency,Hit,StdDev 
1589349615.1,286047005.9,P
1589349616.0,286047005.9,N
1589349635.8,286047003.8,N
1589349655.7,286047009.1,Y
1589349675.5,286046999.7,P
1589349695.3,286047002.1,N
1589349715.2,286047000.1,N
1589349735.0,286047001.4,N
1589349735.9,286047001.4,N
1589349755.8,286047001.6,N
1589349775.6,286047002.8,N
1589349795.4,286047001.0,N
1589349815.3,286047000.6,N
1589349835.1,286046998.4,N
1589349855.9,286047001.2,N
1589349875.7,286047000.8,N
1589349895.5,286046998.5,N
1589349915.4,286046998.5,N
1589349935.2,286046999.5,N
1589349955.0,286046999.4,N
1589349956.0,286046999.4,N
1589349975.8,286047000.6,N
1589349995.6,286047000.7,N
1589350015.5,286046998.5,N
1589350035.3,286047000.8,N
1589350055.1,286046998.3,N
1589350075.9,286046997.0,N
1589350095.7,286046998.9,N
1589350115.6,286047000.5,N
1589350135.4,286047000.0,N
1589350155.2,286047000.6,N
1589350175.1,286047002.4,N
1589350176.0,286047002.4,N
1589350195.8,286047000.1,N
1589350215.7,286047001.2,N
1589350235.5,286047001.0,N
1589350255.3,286047002.7,N
1589350275.2,286047001.1,N
1589350295.0,286046998.1,N
1589350295.9,286046998.1,N
1589350315.8,286047000.0,N
1589350335.6,286047001.5,N
1589350355.4,286046999.7,N
1589350375.3,286047000.6,N
1589350395.1,286046998.8,N
1589350415.8,286046998.9,N
1589350435.7,286047000.8,N
1589350455.5,286047002.1,N
1589350475.4,286047000.4,N
1589350495.2,286047000.2,N
1589350515.0,286047001.4,N
1589350515.9,286047001.4,N
1589350535.8,286047005.4,Y
1589350555.6,286047003.7,P
1589350575.5,286047001.6,N
1589350595.3,286047002.8,N
1589350615.1,286047001.5,N
1589350635.9,286046999.7,N
1589350655.7,286047002.5,N
1589350675.6,286047002.6,N
1589350695.4,286047002.6,N
1589350715.2,286047000.3,N
1589350735.1,286047002.4,N
1589350736.0,286047002.4,N
1589350755.8,286047001.6,N
1589350775.7,286047003.1,N
1589350795.5,286047003.6,Y
1589350815.4,286046999.9,P
1589350835.2,286047000.0,N
1589350855.0,286047001.9,N
1589350855.9,286047001.9,N
1589350875.8,286047003.9,Y
1589350895.6,286047000.9,P
1589350915.5,286046999.9,N
1589350935.3,286046999.7,N
1589350955.1,286047000.5,N
1589350975.9,286047002.8,Y
1589350995.7,286047001.0,P
1589351015.5,286046999.5,N
1589351035.4,286046999.5,N
1589351055.2,286046998.8,N
1589351075.1,286047000.8,N
1589351076.0,286047000.8,N
1589351095.8,286046998.9,N
1589351115.6,286047000.4,N
1589351135.5,286046998.2,N
1589351155.3,286046997.9,N
1589351175.2,286046997.4,N
1589351195.9,286046997.0,N
1589351215.7,286046999.4,N
1589351235.6,286047000.2,N
1589351255.4,286047002.6,N
1589351275.2,286046999.8,N
1589351295.1,286047001.6,N
1589351296.0,286047001.6,N
1589351315.8,286046998.1,N
1589351335.7,286046999.9,N
1589351355.5,286046998.4,N
1589351375.3,286046999.8,N
1589351395.2,286047001.0,N
1589351415.0,286046998.7,N
1589351415.9,286046998.7,N
1589351435.8,286046997.0,N
1589351455.6,286046999.2,N
1589351475.4,286046998.2,N
1589351495.3,286046999.4,N
1589351515.1,286046999.4,N
1589351535.8,286047002.7,N
1589351555.7,286046999.9,N
1589351575.5,286047000.6,N
1589351595.4,286047001.2,N
1589351615.2,286047000.9,N
1589351635.0,286047000.6,N
1589351635.9,286047000.6,N
1589351655.8,286046999.9,N
1589351675.6,286047001.9,N
1589351695.5,286047004.1,N
1589351715.3,286047004.4,N
1589351735.1,286047002.7,N
1589351755.9,286047001.5,N
1589351775.7,286047006.0,Y
1589351795.6,286047000.2,P
1589351815.4,286046999.8,N
1589351835.2,286046999.1,P
1589351855.1,286046998.2,Y
1589351856.0,286046998.2,P
1589351875.8,286046999.4,N
1589351895.6,286046996.5,P
1589351915.5,286046999.5,N
1589351935.3,286046998.2,N
1589351955.2,286046996.5,Y
1589351975.0,286046998.7,P
1589351975.9,286046998.7,P
1589351995.7,286046998.2,P
1589352015.6,286046999.8,N
1589352035.4,286047000.7,N
1589352055.3,286047001.0,N
1589352075.1,286046999.6,N
1589352095.8,286046998.9,N
1589352115.7,286046998.1,N
1589352135.5,286046998.6,N
1589352155.4,286046998.6,N
1589352175.2,286047000.8,N
1589352195.0,286046996.5,Y
1589352195.9,286046996.5,P
1589352215.8,286047001.1,N
1589352235.6,286046998.8,N
1589352255.4,286046997.7,N
1589352275.3,286046997.4,N
1589352295.1,286046998.3,N
1589352315.9,286047002.8,N
1589352335.7,286046999.7,N
1589352355.5,286047001.4,N
1589352375.4,286047001.8,N
1589352395.2,286047002.3,N
1589352415.1,286047002.7,N
1589352416.0,286047002.7,N
1589352435.8,286047001.9,N
1589352455.6,286046999.9,N
1589352475.5,286047004.2,N
1589352495.3,286047000.9,N
1589352515.1,286047000.9,N
1589352535.9,286047002.8,N
1589352555.7,286047002.1,N
1589352575.6,286047003.5,N
1589352595.4,286046999.8,N
1589352615.2,286047002.2,N
1589352635.1,286047001.0,N
1589352636.0,286047001.0,N
1589352655.8,286047002.1,N
1589352675.7,286047000.0,N
1589352695.5,286047000.0,N
1589352715.3,286047000.1,N
1589352735.2,286047000.3,N
1589352755.0,286046999.9,N
1589352755.9,286046999.9,N
1589352775.8,286047001.9,N
1589352795.6,286047002.9,N
1589352815.4,286047003.5,N
1589352835.3,286047003.8,N
1589352855.1,286047003.7,N
1589352875.8,286047004.2,Y
1589352895.7,286047003.2,P
1589352915.5,286047002.9,P
1589352935.4,286047004.1,P
1589352955.2,286047002.6,N
1589352975.1,286047002.5,Y
1589352976.0,286047002.5,P
1589352995.8,286046999.1,P
1589353015.6,286046999.1,N
1589353035.5,286046998.4,N
1589353055.3,286047000.0,N
1589353075.2,286046999.5,N
1589353095.9,286046994.9,Y
1589353115.7,286046997.0,P
1589353135.6,286046997.0,N
1589353155.4,286046995.0,P
1589353175.3,286046995.0,N
1589353195.1,286046995.4,N
1589353196.0,286046995.4,N
